Tracking 32139 objects as of 15-Nov-2025
HD Live streaming from Space Station
objects crossing your sky now

STARLINK-35298

Track STARLINK-35298 now!
10-day predictions
STARLINK-35298 is classified as:


NORAD ID: 65842
Int'l Code: 2025-221V
Perigee: 481.2 km
Apogee: 483.2 km
Inclination: 53.2 °
Period: 94.1 minutes
Semi major axis: 6853 km
RCS: Unknown
Launch date: September 29, 2025
Source: United States (US)
Launch site: AIR FORCE WESTERN TEST RANGE (AFWTR)
Your satellite tracking list
Your tracking list is empty




NASA's NSSDC Master Catalog

Two Line Element Set (TLE):
1 65842U 25221V   25318.87105573  .00044397  00000-0  14996-2 0  9990
2 65842  53.1581 261.6970 0001460  88.9038 271.2130 15.30256031  7153
Source of the keplerian elements: AFSPC